Time,TemperatureF,DewpointF,PressureIn,WindDirection,WindDirectionDegrees,WindSpeedMPH,WindSpeedGustMPH,Humidity,HourlyPrecipIn,Conditions,Clouds,dailyrainin,SolarRadiationWatts/m^2,SoftwareType,DateUTC
2013-02-24 00:10:00,58.0,58.0,29.79,SSE,164,11.0,17.0,98,0.03,,,1.33,0,weatherlink.com 1.10,2013-02-24 05:10:00,
2013-02-24 00:25:00,58.4,58.0,29.76,SSE,159,17.0,20.0,97,0.02,,,1.33,0,weatherlink.com 1.10,2013-02-24 05:25:00,
2013-02-24 00:40:00,58.4,58.0,29.77,SSE,166,12.0,18.0,97,0.02,,,1.34,0,weatherlink.com 1.10,2013-02-24 05:40:00,
2013-02-24 00:55:00,57.8,57.0,29.79,South,189,4.0,11.0,97,0.03,,,1.35,0,weatherlink.com 1.10,2013-02-24 05:55:00,
2013-02-24 01:10:00,58.0,57.0,29.80,SW,226,5.0,7.0,97,0.02,,,1.35,0,weatherlink.com 1.10,2013-02-24 06:10:00,
2013-02-24 01:25:00,58.3,58.0,29.81,WNW,285,7.0,7.0,97,0.03,,,1.36,0,weatherlink.com 1.10,2013-02-24 06:25:00,
2013-02-24 01:40:00,58.1,57.0,29.82,WNW,295,4.0,8.0,97,0.02,,,1.36,0,weatherlink.com 1.10,2013-02-24 06:40:00,
2013-02-24 01:55:00,58.7,58.0,29.82,WNW,291,6.0,12.0,97,0.02,,,1.37,0,weatherlink.com 1.10,2013-02-24 06:55:00,
2013-02-24 02:10:00,58.0,57.0,29.83,NW,308,4.0,8.0,97,0.02,,,1.37,0,weatherlink.com 1.10,2013-02-24 07:10:00,
2013-02-24 02:25:00,57.8,57.0,29.84,NW,305,5.0,7.0,97,0.02,,,1.38,0,weatherlink.com 1.10,2013-02-24 07:25:00,
2013-02-24 02:40:00,57.8,57.0,29.84,WNW,295,8.0,12.0,97,0.03,,,1.39,0,weatherlink.com 1.10,2013-02-24 07:40:00,
2013-02-24 02:55:00,57.6,57.0,29.84,NW,315,8.0,10.0,97,0.02,,,1.39,0,weatherlink.com 1.10,2013-02-24 07:55:00,
2013-02-24 03:10:00,57.2,57.0,29.84,WNW,288,6.0,10.0,98,0.03,,,1.40,0,weatherlink.com 1.10,2013-02-24 08:10:00,
2013-02-24 03:25:00,56.6,56.0,29.85,NW,307,10.0,12.0,98,0.02,,,1.40,0,weatherlink.com 1.10,2013-02-24 08:25:00,
2013-02-24 03:40:00,55.4,55.0,29.86,NW,321,10.0,13.0,97,0.02,,,1.41,0,weatherlink.com 1.10,2013-02-24 08:40:00,
2013-02-24 03:55:00,54.2,54.0,29.86,NW,316,9.0,11.0,98,0.02,,,1.41,0,weatherlink.com 1.10,2013-02-24 08:55:00,
2013-02-24 04:10:00,53.8,53.0,29.86,NW,321,8.0,12.0,98,0.02,,,1.42,0,weatherlink.com 1.10,2013-02-24 09:10:00,
2013-02-24 04:25:00,53.5,53.0,29.86,WNW,302,6.0,11.0,98,0.02,,,0.00,0,weatherlink.com 1.10,2013-02-24 09:25:00,
2013-02-24 04:40:00,53.2,53.0,29.87,NW,307,9.0,10.0,98,0.01,,,0.00,0,weatherlink.com 1.10,2013-02-24 09:40:00,
2013-02-24 04:55:00,52.7,52.0,29.88,NW,316,7.0,13.0,97,0.02,,,0.01,0,weatherlink.com 1.10,2013-02-24 09:55:00,
2013-02-24 05:10:00,52.0,51.0,29.88,NNW,327,12.0,12.0,97,0.01,,,0.01,0,weatherlink.com 1.10,2013-02-24 10:10:00,
2013-02-24 05:26:00,51.8,51.0,29.87,NW,314,4.0,8.0,97,0.02,,,0.02,0,weatherlink.com 1.10,2013-02-24 10:26:00,
2013-02-24 05:41:00,51.6,51.0,29.87,NNW,327,3.0,7.0,97,0.02,,,0.02,0,weatherlink.com 1.10,2013-02-24 10:41:00,
2013-02-24 05:56:00,51.3,51.0,29.89,NW,318,6.0,9.0,97,0.02,,,0.03,0,weatherlink.com 1.10,2013-02-24 10:56:00,
2013-02-24 06:11:00,51.0,50.0,29.89,NW,319,4.0,10.0,97,0.02,,,0.03,0,weatherlink.com 1.10,2013-02-24 11:11:00,
2013-02-24 06:26:00,50.8,50.0,29.89,NW,314,5.0,5.0,97,0.01,,,0.03,0,weatherlink.com 1.10,2013-02-24 11:26:00,
2013-02-24 06:41:00,50.8,50.0,29.90,NW,316,5.0,7.0,97,0.02,,,0.04,0,weatherlink.com 1.10,2013-02-24 11:41:00,
2013-02-24 06:56:00,50.8,50.0,29.91,NW,309,7.0,11.0,97,0.01,,,0.04,0,weatherlink.com 1.10,2013-02-24 11:56:00,
2013-02-24 07:11:00,50.6,50.0,29.91,WSW,255,5.0,10.0,97,0.01,,,0.04,9,weatherlink.com 1.10,2013-02-24 12:11:00,
2013-02-24 07:26:00,50.2,49.0,29.92,NW,309,7.0,12.0,97,0.02,,,0.05,18,weatherlink.com 1.10,2013-02-24 12:26:00,
2013-02-24 07:41:00,50.1,49.0,29.93,NW,318,6.0,11.0,97,0.01,,,0.05,35,weatherlink.com 1.10,2013-02-24 12:41:00,
2013-02-24 07:56:00,50.2,49.0,29.93,NW,318,5.0,8.0,97,0.01,,,0.05,56,weatherlink.com 1.10,2013-02-24 12:56:00,
2013-02-24 08:11:00,50.2,49.0,29.94,NW,323,10.0,12.0,97,0.02,,,0.06,123,weatherlink.com 1.10,2013-02-24 13:11:00,
2013-02-24 08:26:00,50.1,49.0,29.94,NW,320,10.0,11.0,97,0.01,,,0.06,262,weatherlink.com 1.10,2013-02-24 13:26:00,
2013-02-24 08:41:00,50.3,50.0,29.95,NNW,345,9.0,11.0,97,0.01,,,0.06,163,weatherlink.com 1.10,2013-02-24 13:41:00,
2013-02-24 08:56:00,50.3,49.0,29.96,NW,324,8.0,12.0,96,0.02,,,0.07,193,weatherlink.com 1.10,2013-02-24 13:56:00,
2013-02-24 09:11:00,50.5,49.0,29.96,NW,326,10.0,12.0,96,0.01,,,0.07,269,weatherlink.com 1.10,2013-02-24 14:11:00,
2013-02-24 09:26:00,51.1,50.0,29.97,NNW,331,10.0,12.0,94,0.01,,,0.07,499,weatherlink.com 1.10,2013-02-24 14:26:00,
2013-02-24 09:41:00,51.8,50.0,29.96,NNW,347,9.0,12.0,93,0.02,,,0.08,513,weatherlink.com 1.10,2013-02-24 14:41:00,
2013-02-24 09:56:00,52.5,50.0,29.97,North,357,9.0,10.0,92,0.01,,,0.08,578,weatherlink.com 1.10,2013-02-24 14:56:00,
2013-02-24 10:11:00,53.3,50.0,29.97,NNW,340,5.0,12.0,89,0.02,,,0.09,615,weatherlink.com 1.10,2013-02-24 15:11:00,
2013-02-24 10:26:00,54.2,51.0,29.98,NW,315,5.0,9.0,88,0.02,,,0.09,652,weatherlink.com 1.10,2013-02-24 15:26:00,
2013-02-24 10:41:00,55.9,51.0,29.98,North,351,7.0,10.0,84,0.01,,,0.09,686,weatherlink.com 1.10,2013-02-24 15:41:00,
2013-02-24 10:57:00,56.2,52.0,29.98,North,7,2.0,7.0,84,0.02,,,0.10,712,weatherlink.com 1.10,2013-02-24 15:57:00,
2013-02-24 11:12:00,56.7,51.0,29.98,North,355,6.0,7.0,81,0.01,,,0.10,738,weatherlink.com 1.10,2013-02-24 16:12:00,
2013-02-24 11:27:00,57.9,52.0,29.98,ENE,58,1.0,9.0,81,0.02,,,0.11,759,weatherlink.com 1.10,2013-02-24 16:27:00,
2013-02-24 11:42:00,58.6,52.0,29.97,NW,314,5.0,6.0,78,0.02,,,0.11,780,weatherlink.com 1.10,2013-02-24 16:42:00,
2013-02-24 11:57:00,59.8,53.0,29.97,NNE,14,4.0,7.0,77,0.02,,,0.12,791,weatherlink.com 1.10,2013-02-24 16:57:00,
2013-02-24 12:12:00,61.1,53.0,29.96,NNW,343,5.0,7.0,74,0.02,,,0.12,800,weatherlink.com 1.10,2013-02-24 17:12:00,
2013-02-24 12:27:00,61.8,53.0,29.96,North,352,0.0,5.0,72,0.02,,,0.13,802,weatherlink.com 1.10,2013-02-24 17:27:00,
2013-02-24 12:42:00,63.0,52.0,29.95,NNE,26,1.0,7.0,68,0.02,,,0.13,802,weatherlink.com 1.10,2013-02-24 17:42:00,
2013-02-24 12:57:00,64.0,53.0,29.95,North,7,8.0,9.0,68,0.02,,,0.14,796,weatherlink.com 1.10,2013-02-24 17:57:00,
2013-02-24 13:12:00,60.8,52.0,29.95,SSE,163,4.0,9.0,74,0.03,,,0.15,784,weatherlink.com 1.10,2013-02-24 18:12:00,
2013-02-24 13:27:00,56.9,53.0,29.94,South,172,12.0,14.0,85,0.02,,,0.15,770,weatherlink.com 1.10,2013-02-24 18:27:00,
2013-02-24 13:42:00,57.0,52.0,29.94,South,172,10.0,12.0,83,0.01,,,0.15,752,weatherlink.com 1.10,2013-02-24 18:42:00,
2013-02-24 13:57:00,58.0,52.0,29.94,South,180,10.0,11.0,81,0.02,,,0.16,733,weatherlink.com 1.10,2013-02-24 18:57:00,
2013-02-24 14:12:00,58.8,53.0,29.93,SSW,196,5.0,12.0,80,0.01,,,0.16,708,weatherlink.com 1.10,2013-02-24 19:12:00,
2013-02-24 14:27:00,59.2,53.0,29.93,SSE,166,8.0,11.0,80,0.02,,,0.17,680,weatherlink.com 1.10,2013-02-24 19:27:00,
2013-02-24 14:42:00,59.6,53.0,29.93,South,173,10.0,12.0,78,0.01,,,0.17,647,weatherlink.com 1.10,2013-02-24 19:42:00,
2013-02-24 14:57:00,59.4,53.0,29.93,South,170,10.0,13.0,79,0.02,,,0.18,615,weatherlink.com 1.10,2013-02-24 19:57:00,
2013-02-24 15:12:00,58.6,53.0,29.93,South,174,9.0,13.0,82,0.02,,,0.18,580,weatherlink.com 1.10,2013-02-24 20:12:00,
2013-02-24 15:27:00,58.6,53.0,29.93,SSE,164,10.0,13.0,82,0.01,,,0.18,531,weatherlink.com 1.10,2013-02-24 20:27:00,
2013-02-24 15:42:00,59.5,53.0,29.92,South,183,8.0,12.0,79,0.01,,,0.18,490,weatherlink.com 1.10,2013-02-24 20:42:00,
2013-02-24 15:57:00,60.2,53.0,29.92,SSE,164,9.0,10.0,77,0.01,,,0.19,439,weatherlink.com 1.10,2013-02-24 20:57:00,
2013-02-24 16:12:00,59.5,53.0,29.91,SSE,168,7.0,10.0,80,0.01,,,0.19,392,weatherlink.com 1.10,2013-02-24 21:12:00,
2013-02-24 16:27:00,59.9,54.0,29.91,South,182,8.0,12.0,81,0.01,,,0.19,339,weatherlink.com 1.10,2013-02-24 21:27:00,
2013-02-24 16:42:00,59.8,53.0,29.92,South,178,7.0,10.0,78,0.02,,,0.20,290,weatherlink.com 1.10,2013-02-24 21:42:00,
2013-02-24 16:57:00,59.7,53.0,29.92,South,173,5.0,8.0,79,0.01,,,0.20,236,weatherlink.com 1.10,2013-02-24 21:57:00,
2013-02-24 17:12:00,60.0,53.0,29.92,SSE,149,8.0,8.0,79,0.01,,,0.20,183,weatherlink.com 1.10,2013-02-24 22:12:00,
2013-02-24 17:27:00,59.3,54.0,29.92,South,172,3.0,5.0,83,0.01,,,0.20,63,weatherlink.com 1.10,2013-02-24 22:27:00,
2013-02-24 17:42:00,58.4,54.0,29.92,SSE,164,5.0,7.0,86,0.01,,,0.21,37,weatherlink.com 1.10,2013-02-24 22:42:00,
2013-02-24 17:57:00,57.9,54.0,29.93,SSE,149,0.0,3.0,87,0.01,,,0.21,25,weatherlink.com 1.10,2013-02-24 22:57:00,
2013-02-24 18:12:00,57.7,55.0,29.93,SSE,167,2.0,5.0,90,0.01,,,0.21,0,weatherlink.com 1.10,2013-02-24 23:12:00,
2013-02-24 18:27:00,57.1,55.0,29.94,SSE,168,3.0,5.0,91,0.01,,,0.21,0,weatherlink.com 1.10,2013-02-24 23:27:00,
2013-02-24 18:42:00,56.9,55.0,29.94,South,170,3.0,4.0,92,0.01,,,0.22,0,weatherlink.com 1.10,2013-02-24 23:42:00,
2013-02-24 18:57:00,56.7,55.0,29.94,SSE,167,2.0,4.0,92,0.01,,,0.22,0,weatherlink.com 1.10,2013-02-24 23:57:00,
2013-02-24 19:12:00,56.2,54.0,29.95,SSE,167,1.0,2.0,93,0.01,,,0.22,0,weatherlink.com 1.10,2013-02-25 00:12:00,
2013-02-24 19:27:00,55.5,54.0,29.96,SSE,167,0.0,0.0,93,0.01,,,0.22,0,weatherlink.com 1.10,2013-02-25 00:27:00,
2013-02-24 19:42:00,55.2,53.0,29.96,SSE,167,0.0,0.0,93,0.00,,,0.22,0,weatherlink.com 1.10,2013-02-25 00:42:00,
2013-02-24 19:57:00,55.1,54.0,29.97,SSE,167,0.0,0.0,94,0.01,,,0.23,0,weatherlink.com 1.10,2013-02-25 00:57:00,
2013-02-24 20:12:00,54.5,53.0,29.97,SSE,167,0.0,0.0,94,0.01,,,0.23,0,weatherlink.com 1.10,2013-02-25 01:12:00,
2013-02-24 20:27:00,54.1,53.0,29.97,SSE,167,0.0,0.0,94,0.01,,,0.23,0,weatherlink.com 1.10,2013-02-25 01:27:00,
2013-02-24 20:42:00,53.9,53.0,29.97,SSE,167,0.0,0.0,95,0.01,,,0.23,0,weatherlink.com 1.10,2013-02-25 01:42:00,
2013-02-24 20:57:00,53.7,52.0,29.97,SSE,167,0.0,0.0,95,0.00,,,0.23,0,weatherlink.com 1.10,2013-02-25 01:57:00,
2013-02-24 21:12:00,53.3,52.0,29.98,SSE,167,0.0,0.0,95,0.01,,,0.24,0,weatherlink.com 1.10,2013-02-25 02:12:00,
2013-02-24 21:27:00,53.3,52.0,29.98,SSE,167,0.0,0.0,96,0.01,,,0.24,0,weatherlink.com 1.10,2013-02-25 02:27:00,
2013-02-24 21:43:00,53.2,52.0,29.99,SSE,167,0.0,0.0,95,0.01,,,0.24,0,weatherlink.com 1.10,2013-02-25 02:43:00,
2013-02-24 21:58:00,52.7,52.0,29.99,SSE,167,0.0,0.0,96,0.01,,,0.24,0,weatherlink.com 1.10,2013-02-25 02:58:00,
2013-02-24 22:13:00,53.7,53.0,29.99,SSE,167,0.0,0.0,96,0.00,,,0.24,0,weatherlink.com 1.10,2013-02-25 03:13:00,
2013-02-24 22:28:00,53.2,52.0,29.98,SSE,167,0.0,0.0,96,0.00,,,0.24,0,weatherlink.com 1.10,2013-02-25 03:28:00,
2013-02-24 22:43:00,52.4,51.0,29.98,SE,141,0.0,0.0,96,0.00,,,0.24,0,weatherlink.com 1.10,2013-02-25 03:43:00,
2013-02-24 22:58:00,52.8,52.0,29.98,NE,52,0.0,0.0,96,0.01,,,0.25,0,weatherlink.com 1.10,2013-02-25 03:58:00,
2013-02-24 23:13:00,52.6,52.0,29.98,NE,52,0.0,0.0,96,0.01,,,0.25,0,weatherlink.com 1.10,2013-02-25 04:13:00,
2013-02-24 23:28:00,52.7,52.0,29.98,NE,52,0.0,0.0,97,0.01,,,0.25,0,weatherlink.com 1.10,2013-02-25 04:28:00,
2013-02-24 23:43:00,52.3,51.0,29.98,NE,52,0.0,0.0,96,0.01,,,0.25,0,weatherlink.com 1.10,2013-02-25 04:43:00,
2013-02-24 23:58:00,52.3,52.0,29.98,NE,52,0.0,0.0,97,0.00,,,0.25,0,weatherlink.com 1.10,2013-02-25 04:58:00,